This is the latest recevied weather packets stored in our database for station/object KR4ELZ. If no packets are shown the sender has not sent any weather packets the latest 10 day(s).
| Time | Temp. | Humidity | Pressure | Rain* | Wind** | Luminosity | Snow |
|---|---|---|---|---|---|---|---|
| 1777941463 | 22.78° C | 48% | 1010.5 hPa | 0 mm | - | 2 W/m² | - |
| 1777941160 | 22.78° C | 48% | 1010.3 hPa | 0 mm | - | 3 W/m² | - |
| 1777940856 | 22.78° C | 47% | 1010.3 hPa | 0 mm | - | 5 W/m² | - |
| 1777940554 | 23.33° C | 47% | 1010.3 hPa | 0 mm | - | 7 W/m² | - |
| 1777940251 | 23.89° C | 46% | 1010.2 hPa | 0 mm | - | 9 W/m² | - |
| 1777939949 | 23.89° C | 45% | 1010.3 hPa | 0 mm | - | 13 W/m² | - |
| 1777939645 | 23.89° C | 47% | 1010.4 hPa | 0 mm | - | 14 W/m² | - |
| 1777939343 | 23.89° C | 46% | 1010.3 hPa | 0 mm | - | 14 W/m² | - |
| 1777939040 | 25° C | 45% | 1010.2 hPa | 0 mm | - | 15 W/m² | - |
| 1777938736 | 25.56° C | 44% | 1010.2 hPa | 0 mm | - | 27 W/m² | - |
| 1777938433 | 25.56° C | 44% | 1010.2 hPa | 0 mm | - | 35 W/m² | - |
| 1777938130 | 25.56° C | 43% | 1010.2 hPa | 0 mm | - | 41 W/m² | - |
| 1777937826 | 25.56° C | 43% | 1010.1 hPa | 0 mm | - | 47 W/m² | - |
| 1777937523 | 25.56° C | 42% | 1010.3 hPa | 0 mm | - | 54 W/m² | - |
| 1777937220 | 25.56° C | 42% | 1010.4 hPa | 0 mm | - | 56 W/m² | - |
| 1777936917 | 26.11° C | 41% | 1010.5 hPa | 0 mm | - | 68 W/m² | - |
| 1777936614 | 26.11° C | 41% | 1010.6 hPa | 0 mm | - | 66 W/m² | - |
| 1777936310 | 26.11° C | 41% | 1010.3 hPa | 0 mm | - | 87 W/m² | - |
| 1777936006 | 26.11° C | 41% | 1010.4 hPa | 0 mm | - | 97 W/m² | - |
| 1777935705 | 26.11° C | 41% | 1010.4 hPa | 0 mm | - | 104 W/m² | - |
| 1777935403 | 26.67° C | 42% | 1010.4 hPa | 0 mm | - | 117 W/m² | - |
| 1777935098 | 26.67° C | 40% | 1010.4 hPa | 0 mm | - | 126 W/m² | - |
| 1777934796 | 26.67° C | 42% | 1010.3 hPa | 0 mm | - | 135 W/m² | - |
| 1777934492 | 26.67° C | 40% | 1010.2 hPa | 0 mm | - | 147 W/m² | - |
| 1777934190 | 26.67° C | 41% | 1010.4 hPa | 0 mm | - | 156 W/m² | - |
* Rain latest hour (hover to see other rain measurements)
** Current wind speed in m/s (hover to see current wind gust speed)